| time (UTC) | temp C | wind direction | speed KPH | gust KPH | rain 1hr cm | rain 24hr cm | rain mn cm | humidity % | barometer mb |
| 20260831005032 | 12 | 306 | 0.0 | 0.0 | 0.00 | 0.00 | 1.17 | 80 | 1027.2 |
| 20260831004037 | 13 | 169 | 0.0 | 0.0 | 0.00 | 0.00 | 1.17 | 79 | 1027.2 |
| 20260831003025 | 13 | 169 | 0.0 | 0.0 | 0.00 | 0.00 | 1.17 | 79 | 1027.2 |
| 20260831002026 | 13 | 265 | 0.0 | 0.0 | 0.00 | 0.00 | 1.17 | 78 | 1027.2 |
| 20260831001034 | 13 | 259 | 0.0 | 0.0 | 0.00 | 0.00 | 1.17 | 77 | 1027.1 |
| 20260831000032 | 14 | 250 | 0.0 | 0.0 | 0.00 | 0.00 | 1.17 | 77 | 1027.2 |
| 20260830235032 | 15 | 310 | 0.0 | 0.0 | 0.00 | 0.00 | 1.17 | 75 | 1027.2 |
| 20260830234033 | 15 | 244 | 0.0 | 0.0 | 0.00 | 0.00 | 1.17 | 74 | 1027.2 |
| 20260830232032 | 14 | 9 | 0.0 | 0.0 | 0.00 | 0.00 | 1.17 | 77 | 1027.2 |
| 20260830231028 | 14 | 9 | 0.0 | 0.0 | 0.00 | 0.00 | 1.17 | 76 | 1027.2 |
| 20260830230035 | 13 | 5 | 0.0 | 0.0 | 0.00 | 0.00 | 1.17 | 78 | 1027.0 |
| 20260830225036 | 13 | 344 | 3.2 | 0.0 | 0.00 | 0.00 | 1.17 | 80 | 1027.0 |
| 20260830224032 | 13 | 87 | 3.2 | 0.0 | 0.00 | 0.00 | 1.17 | 79 | 1026.9 |
| 20260830223026 | 14 | 360 | 6.4 | 0.0 | 0.00 | 0.00 | 1.17 | 81 | 1027.6 |
| 20260830222021 | 15 | 249 | 1.6 | 0.0 | 0.00 | 0.00 | 1.17 | 83 | 1027.5 |
| 20260830220039 | 12 | 121 | 1.6 | 0.0 | 0.00 | 0.00 | 1.17 | 88 | 1028.0 |
| 20260830215016 | 12 | 53 | 1.6 | 0.0 | 0.00 | 0.00 | 1.17 | 86 | 1028.0 |
| 20260830214037 | 13 | 38 | 3.2 | 0.0 | 0.00 | 0.00 | 1.17 | 85 | 1028.2 |
| 20260830213035 | 13 | 248 | 0.0 | 0.0 | 0.00 | 0.00 | 1.14 | 88 | 1028.5 |
| 20260830212019 | 12 | 215 | 0.0 | 0.0 | 0.00 | 0.00 | 1.14 | 87 | 1028.5 |
| 20260830211021 | 12 | 169 | 0.0 | 0.0 | 0.00 | 0.00 | 1.14 | 89 | 1028.5 |
| 20260830210037 | 11 | 265 | 0.0 | 0.0 | 0.00 | 0.00 | 1.14 | 91 | 1028.2 |
| 20260830205033 | 11 | 265 | 0.0 | 0.0 | 0.00 | 0.00 | 1.14 | 91 | 1028.5 |
| 20260830204028 | 11 | 269 | 0.0 | 0.0 | 0.00 | 0.00 | 1.14 | 92 | 1028.5 |
| 20260830203027 | 11 | 263 | 0.0 | 0.0 | 0.00 | 0.00 | 1.14 | 93 | 1029.1 |
| 20260830202025 | 10 | 263 | 0.0 | 0.0 | 0.00 | 0.00 | 1.14 | 93 | 1029.1 |
| 20260830201040 | 10 | 263 | 0.0 | 0.0 | 0.00 | 0.00 | 1.12 | 93 | 1029.2 |
| 20260830195033 | 9 | 254 | 0.0 | 0.0 | 0.00 | 0.00 | 1.02 | 91 | 1029.8 |
| 20260830194034 | 10 | 242 | 1.6 | 0.0 | 0.00 | 0.00 | 0.94 | 90 | 1029.2 |
| 20260830193029 | 10 | 302 | 1.6 | 0.0 | 0.00 | 0.00 | 0.89 | 90 | 1028.7 |
| 20260830192027 | 10 | 196 | 0.0 | 0.0 | 0.00 | 0.00 | 0.86 | 92 | 1028.5 |
| 20260830191022 | 10 | 253 | 1.6 | 0.0 | 0.00 | 0.00 | 0.86 | 91 | 1028.0 |
| 20260830190026 | 10 | 202 | 0.0 | 0.0 | 0.00 | 0.00 | 0.84 | 90 | 1027.7 |
| 20260830185024 | 10 | 290 | 0.0 | 0.0 | 0.00 | 0.00 | 0.79 | 90 | 1028.5 |
| 20260830184039 | 11 | 238 | 1.6 | 0.0 | 0.00 | 0.00 | 0.69 | 88 | 1028.6 |
| 20260830183035 | 11 | 227 | 1.6 | 0.0 | 0.00 | 0.00 | 0.64 | 87 | 1028.4 |
| 20260830182030 | 12 | 84 | 0.0 | 0.0 | 0.00 | 0.00 | 0.61 | 89 | 1028.1 |
| 20260830181031 | 11 | 85 | 1.6 | 0.0 | 0.00 | 0.00 | 0.61 | 85 | 1027.4 |
| 20260830180027 | 11 | 84 | 1.6 | 0.0 | 0.00 | 0.00 | 0.61 | 88 | 1027.3 |
| 20260830175021 | 11 | 96 | 1.6 | 0.0 | 0.00 | 0.00 | 0.61 | 92 | 1027.4 |
| 20260830174037 | 10 | 133 | 0.0 | 0.0 | 0.00 | 0.00 | 0.61 | 94 | 1027.4 |
| 20260830173036 | 10 | 244 | 0.0 | 0.0 | 0.00 | 0.00 | 0.61 | 93 | 1027.2 |
| 20260830171034 | 11 | 277 | 1.6 | 0.0 | 0.00 | 0.00 | 0.56 | 88 | 1028.3 |
| 20260830170038 | 12 | 78 | 0.0 | 0.0 | 0.00 | 0.00 | 0.18 | 92 | 1027.7 |
| 20260830165034 | 12 | 78 | 1.6 | 0.0 | 0.00 | 0.00 | 0.18 | 93 | 1026.7 |
| 20260830164032 | 11 | 78 | 0.0 | 0.0 | 0.00 | 0.00 | 0.18 | 95 | 1026.8 |
| 20260830162036 | 10 | 107 | 0.0 | 0.0 | 0.00 | 0.00 | 0.18 | 96 | 1027.0 |
| 20260830161032 | 10 | 107 | 0.0 | 0.0 | 0.00 | 0.00 | 0.18 | 96 | 1027.1 |
| 20260830160026 | 10 | 106 | 0.0 | 0.0 | 0.00 | 0.00 | 0.18 | 96 | 1027.7 |
| 20260830155038 | 9 | 107 | 0.0 | 0.0 | 0.00 | 0.00 | 0.18 | 96 | 1027.4 |
| 20260830153024 | 9 | 106 | 0.0 | 0.0 | 0.00 | 0.00 | 0.18 | 96 | 1027.9 |
| 20260830152023 | 9 | 106 | 0.0 | 0.0 | 0.00 | 0.00 | 0.18 | 96 | 1027.9 |
| 20260830151035 | 9 | 106 | 0.0 | 0.0 | 0.00 | 0.00 | 0.18 | 96 | 1028.1 |
| 20260830145026 | 8 | 106 | 0.0 | 0.0 | 0.00 | 0.00 | 0.18 | 97 | 1027.6 |
| 20260830144021 | 8 | 106 | 0.0 | 0.0 | 0.00 | 0.00 | 0.15 | 97 | 1028.3 |
| 20260830143022 | 8 | 106 | 1.6 | 0.0 | 0.00 | 0.00 | 0.15 | 97 | 1028.2 |
| 20260830142034 | 8 | 106 | 0.0 | 0.0 | 0.00 | 0.00 | 0.15 | 96 | 1028.2 |
| 20260830135021 | 8 | 106 | 0.0 | 0.0 | 0.00 | 0.00 | 0.15 | 96 | 1028.2 |
| 20260830134020 | 8 | 106 | 0.0 | 0.0 | 0.00 | 0.00 | 0.15 | 96 | 1028.0 |
| 20260830133037 | 8 | 106 | 0.0 | 0.0 | 0.00 | 0.00 | 0.15 | 96 | 1027.4 |
| 20260830132028 | 8 | 106 | 0.0 | 0.0 | 0.00 | 0.00 | 0.15 | 96 | 1027.4 |
| 20260830131021 | 7 | 106 | 0.0 | 0.0 | 0.00 | 0.00 | 0.15 | 96 | 1027.1 |
| 20260830130033 | 7 | 106 | 0.0 | 0.0 | 0.00 | 0.00 | 0.15 | 96 | 1026.9 |
| 20260830125016 | 7 | 106 | 0.0 | 0.0 | 0.00 | 0.00 | 0.15 | 96 | 1026.5 |
| 20260830124034 | 8 | 106 | 0.0 | 0.0 | 0.00 | 0.00 | 0.15 | 96 | 1026.3 |
| 20260830123027 | 8 | 106 | 0.0 | 0.0 | 0.00 | 0.00 | 0.15 | 96 | 1026.2 |
| 20260830122019 | 7 | 106 | 0.0 | 0.0 | 0.00 | 0.00 | 0.15 | 96 | 1026.3 |
| 20260830121034 | 7 | 106 | 0.0 | 0.0 | 0.00 | 0.00 | 0.15 | 96 | 1026.2 |
| 20260830120031 | 7 | 106 | 0.0 | 0.0 | 0.00 | 0.00 | 0.15 | 96 | 1025.8 |
| 20260830115024 | 7 | 106 | 0.0 | 0.0 | 0.00 | 0.00 | 0.15 | 96 | 1025.6 |
| 20260830113031 | 7 | 106 | 0.0 | 0.0 | 0.00 | 0.00 | 0.15 | 96 | 1026.7 |
| 20260830112025 | 8 | 106 | 0.0 | 0.0 | 0.00 | 0.00 | 0.15 | 96 | 1026.5 |
| 20260830111022 | 8 | 106 | 0.0 | 0.0 | 0.00 | 0.00 | 0.15 | 96 | 1027.0 |
| 20260830110035 | 8 | 106 | 0.0 | 0.0 | 0.00 | 0.00 | 0.15 | 96 | 1027.0 |
| 20260830105031 | 8 | 106 | 0.0 | 0.0 | 0.00 | 0.00 | 0.15 | 96 | 1026.9 |
| 20260830104024 | 8 | 106 | 0.0 | 0.0 | 0.00 | 0.00 | 0.15 | 96 | 1027.0 |
| 20260830102031 | 8 | 106 | 0.0 | 0.0 | 0.00 | 0.00 | 0.15 | 96 | 1026.8 |
| 20260830101027 | 8 | 106 | 0.0 | 0.0 | 0.00 | 0.00 | 0.15 | 96 | 1026.8 |
| 20260830092033 | 8 | 106 | 0.0 | 0.0 | 0.00 | 0.00 | 0.15 | 95 | 1026.8 |
| 20260830091033 | 8 | 106 | 0.0 | 0.0 | 0.00 | 0.00 | 0.15 | 95 | 1027.0 |
| 20260830085024 | 8 | 106 | 0.0 | 0.0 | 0.00 | 0.00 | 0.15 | 95 | 1027.1 |
| 20260830084020 | 8 | 106 | 0.0 | 0.0 | 0.00 | 0.00 | 0.15 | 95 | 1026.8 |
| 20260830083031 | 8 | 106 | 0.0 | 0.0 | 0.00 | 0.00 | 0.15 | 95 | 1026.9 |
| 20260830081021 | 8 | 106 | 0.0 | 0.0 | 0.00 | 0.00 | 0.15 | 95 | 1026.8 |
| 20260830080040 | 8 | 106 | 0.0 | 0.0 | 0.00 | 0.00 | 0.15 | 95 | 1027.4 |
| 20260830075032 | 8 | 106 | 0.0 | 0.0 | 0.00 | 0.00 | 0.15 | 95 | 1027.5 |
| 20260830074024 | 8 | 106 | 0.0 | 0.0 | 0.00 | 0.00 | 0.15 | 95 | 1027.8 |
| 20260830073022 | 8 | 106 | 0.0 | 0.0 | 0.00 | 0.00 | 0.13 | 95 | 1027.8 |
| 20260830072039 | 9 | 106 | 0.0 | 0.0 | 0.00 | 0.00 | 0.10 | 95 | 1028.1 |
| 20260830071031 | 9 | 106 | 0.0 | 0.0 | 0.00 | 0.00 | 0.05 | 95 | 1028.0 |
| 20260830070025 | 9 | 106 | 0.0 | 0.0 | 0.00 | 0.00 | 0.03 | 95 | 1028.0 |
| 20260830065021 | 8 | 106 | 0.0 | 0.0 | 0.00 | 0.00 | 0.03 | 95 | 1028.1 |
| 20260830063035 | 8 | 106 | 0.0 | 0.0 | 0.00 | 0.00 | 0.00 | 95 | 1028.5 |
| 20260830062027 | 8 | 106 | 0.0 | 0.0 | 0.00 | 0.00 | 0.00 | 95 | 1028.1 |
| 20260830061021 | 8 | 106 | 0.0 | 0.0 | 0.00 | 0.00 | 0.00 | 94 | 1027.9 |
| 20260830060034 | 9 | 106 | 0.0 | 0.0 | 0.00 | 0.00 | 0.00 | 95 | 1027.9 |
| 20260830055032 | 9 | 106 | 0.0 | 0.0 | 0.00 | 0.00 | 0.56 | 95 | 1028.1 |
| 20260830053038 | 9 | 106 | 0.0 | 0.0 | 0.00 | 0.00 | 0.56 | 94 | 1028.6 |
| 20260830052031 | 9 | 106 | 0.0 | 0.0 | 0.00 | 0.00 | 0.56 | 94 | 1028.1 |
| 20260830051024 | 9 | 106 | 0.0 | 0.0 | 0.00 | 0.00 | 0.56 | 94 | 1028.5 |
| 20260830050040 | 9 | 106 | 0.0 | 0.0 | 0.00 | 0.00 | 0.56 | 94 | 1029.0 |
| 20260830045034 | 9 | 106 | 0.0 | 0.0 | 0.00 | 0.00 | 0.56 | 94 | 1029.4 |
| 20260830043043 | 9 | 106 | 0.0 | 0.0 | 0.00 | 0.00 | 0.53 | 94 | 1029.3 |
| 20260830042036 | 9 | 106 | 0.0 | 0.0 | 0.00 | 0.00 | 0.53 | 94 | 1029.6 |
| 20260830041033 | 9 | 106 | 0.0 | 0.0 | 0.00 | 0.00 | 0.53 | 94 | 1029.4 |
| 20260830035041 | 9 | 106 | 0.0 | 0.0 | 0.00 | 0.00 | 0.51 | 94 | 1029.8 |
| 20260830034034 | 9 | 106 | 0.0 | 0.0 | 0.00 | 0.00 | 0.51 | 94 | 1029.5 |
| 20260830033029 | 9 | 106 | 1.6 | 0.0 | 0.00 | 0.00 | 0.51 | 93 | 1029.3 |
| 20260830032029 | 9 | 107 | 0.0 | 0.0 | 0.00 | 0.00 | 0.51 | 93 | 1029.3 |
| 20260830031024 | 9 | 109 | 0.0 | 0.0 | 0.00 | 0.00 | 0.51 | 93 | 1029.3 |
| 20260830030042 | 10 | 115 | 0.0 | 0.0 | 0.00 | 0.00 | 0.51 | 92 | 1029.3 |
| 20260830025034 | 10 | 123 | 0.0 | 0.0 | 0.00 | 0.00 | 0.51 | 91 | 1029.3 |
| 20260830024024 | 10 | 123 | 0.0 | 0.0 | 0.00 | 0.00 | 0.51 | 90 | 1029.2 |
| 20260830023040 | 10 | 304 | 0.0 | 0.0 | 0.00 | 0.00 | 0.48 | 89 | 1029.2 |
| 20260830022034 | 10 | 285 | 1.6 | 0.0 | 0.00 | 0.00 | 0.41 | 88 | 1029.6 |
| 20260830021027 | 10 | 316 | 0.0 | 0.0 | 0.00 | 0.00 | 0.33 | 88 | 1029.7 |
| 20260830020024 | 10 | 316 | 1.6 | 0.0 | 0.00 | 0.00 | 0.33 | 88 | 1029.1 |
| 20260830015036 | 10 | 121 | 0.0 | 0.0 | 0.00 | 0.00 | 0.30 | 87 | 1029.0 |
| 20260830014033 | 10 | 121 | 1.6 | 0.0 | 0.00 | 0.00 | 0.28 | 85 | 1028.5 |
| 20260830012023 | 10 | 86 | 0.0 | 0.0 | 0.00 | 0.00 | 0.23 | 84 | 1028.4 |
| 20260830011034 | 11 | 86 | 0.0 | 0.0 | 0.00 | 0.00 | 0.23 | 83 | 1028.2 |